SCP
0 0 0 0 0 0 0 0 0 0 0 0 0 0 0 0 0 0 0 0 0 0 0 0 0 0 0 0 0 0 0 0 0 0 0 0 0 0
0 0 0 0 0 0 0 0 0 0 0 0 0 0 0 0 0 0 0 0 0 0 0 0 0 0 0 0 0 0 0 0 0 0 0 0 0 0
0 0 0 0 0 0 0 0 0 0 0 0 0 0 0 0 0 0 0 0 0 0 0 0 0 0 0 0 0 0 0 0 0 0 0 0 0 0
0 0 0 0 0 0 0 0 0 0 0 0 0 0 0 0 0 0 0 0 0 0 0 0 0 0 0 0 0 0 0 0 0 0 0 0 0 0
0 0 0 0 0 0 0 0 0 0 0 0 0 0 0 0 0 0 0 0 0 0 0 0 0 0 0 0 0 0 0 0 0 0 0 0 0 0
0 0 0 0 0 0 0 0 0 0 0 0 0 0 0 0 0 0 0 0 0 0 0 0 0 0 0 0 0 0 0 0 0 0 0 0 0 0
0 0 0 0 0 0 0 0 0 0 0 0 0 0 0 0 0 0 0 0 0 0 0 0 0 0 0 0 0 0 0 0 0 0 0 0 0 0
0 0 0 0 0 0 0 0 0 0 0 0 0 0 0 0 0 0 0 0 0 0 0 0 0 0 0 0 0 0 0 0 0 0 0 0 0 0
0 0 0 0 0 0 0 0 0 0 0 0 0 0 0 0 0 0 0 0 0 0 0 0 0 0 0 0 0 0 0 0 0 0 0 0 0 0
0 0 0 0 0 0 0 0 0 0 0 0 0 0 0 0 0 0 0 0 0 0 0 0 0 0 0 0 0 0 0 0 0 0 0 0 0 0
0 0 0 0 0 0 0 0 0 0 0 0 0 0 0 0 0 0 0 0 0 0 0 0 0 0 0 0 0 0 0 0 0 0 0 0 0 0
0 0 0 0 0 0 0 0 0 0 0 0 0 0 0 0 0 0 0 0 0 0 0 0 0 0 0 0 0 0 0 0 0 0 0 0 0 0
0 0 0 0 0 0 0 0 0 0 0 0 0 0 0 0 0 0 0 0 0 0 0 0 0 0 0 0 0 0 0 0 0 0 0 0 0 0
0 0 0 -0 -0 0 0 0 0 0 0 0 0 0 0 0 0 0 0 0 0 0 0 0 0 0 0 0 0 0 0 0 0 0 0 0 0 0
0 0 0 -0 -0 0 0 0 0 0 0 0 0 0 0 0 0 0 0 0 0 0 0 0 0 0 0 0 0 0 0 0 0 -0 0 0 0 0
0 0 0 0 0 0 0 0 0 0 0 0 0 0 0 0 0 0 0 0 0 0 0 0 0 0 0 0 0 0 0 0 0 -0 0 0 0 0
0 0 0 0 0 0 0 0 0 0 0 0 0 0 0 0 0 0 0 0 0 0 0 0 0 0 0 0 0 0 0 -0 -0 -0 0 0 0 0
0 0 0 0 0 0 0 0 0 0 0 0 0 0 0 0 0 0 0 0 0 0 0 0 0 0 0 0 0 0 0 0 0 0 0 0 0 0
0 0 0 0 0 0 0 0 0 0 0 0 0 0 0 0 0 0 0 0 0 0 0 0 0 0 0 0 0 0 0 0 0 0 0 0 0 0
0 0 0 0 0 0 0 0 0 0 0 0 0 0 0 0 0 0 0 0 0 0 0 0 0 0 0 0 0 0 0 0 0 0 0 0 0 0
0 0 0 0 0 0 0 0 0 0 0 0 0 0 0 0 0 0 0 0 0 0 0 0 0 0 0 0 0 0 0 0 0 0 0 0 0 0
0 0 0 0 0 0 0 0 0 0 0 0 0 0 0 0 0 0 0 0 0 0 0 0 0 0 0 0 0 0 0 0 0 0 0 0 0 0
0 0 0 0 0 0 0 0 0 0 0 0 0 0 0 0 0 0 0 0 0 0 0 0 0 0 0 0 0 0 0 0 0 0 0 0 0 0
Wind_Speed
6 6 5 4 4 4 4 4 3 4 4 3 2 1 2 2 2 2 2 4 7 8 8 9 9 9 10 10 11 11 11 12 12 12 13 14 15 15
5 6 6 4 4 4 4 4 4 4 4 3 2 2 2 2 2 1 1 1 3 5 6 6 7 7 7 8 8 9 9 10 10 10 11 11 11 11
6 6 7 6 4 4 4 3 4 4 6 4 2 2 1 1 1 1 1 1 1 3 4 5 7 8 8 8 8 8 8 8 9 9 9 9 9 9
7 7 7 6 6 4 4 4 4 5 5 5 3 2 2 2 1 1 1 2 3 5 6 8 9 10 10 10 10 10 10 9 9 9 9 9 9 8
7 7 7 6 6 5 5 5 4 4 4 4 3 2 1 2 1 2 3 3 4 6 8 9 11 11 11 11 11 11 11 11 10 10 10 10 9 9
7 7 7 7 7 6 5 5 4 4 4 4 3 2 2 2 3 3 3 3 3 5 7 8 11 13 12 12 12 12 12 11 11 10 10 10 10 9
6 6 7 9 10 8 6 5 5 4 4 4 4 3 3 4 4 3 4 4 3 3 5 5 6 6 7 10 12 12 11 11 11 10 10 10 10 10
7 6 6 8 9 11 11 10 9 8 7 6 4 5 5 5 4 5 6 5 3 2 4 4 4 5 4 4 8 11 11 10 10 10 10 9 9 9
6 5 5 5 6 5 6 8 9 10 10 7 7 7 7 7 7 7 6 5 4 5 5 4 3 4 4 5 9 10 9 9 9 9 9 8 8 8
6 6 6 5 5 5 5 4 4 5 6 6 6 6 6 6 7 7 7 6 6 4 3 4 3 3 4 4 6 8 8 7 8 8 8 8 7 7
5 5 5 6 7 8 6 5 4 2 3 6 7 7 9 10 9 8 8 8 7 3 2 4 3 3 3 3 3 5 6 6 6 7 7 7 8 7
3 3 5 6 7 8 6 6 6 4 4 5 5 6 6 8 10 9 9 9 8 4 2 4 4 4 3 1 1 2 3 3 5 5 6 7 6 4
3 3 3 6 7 7 6 6 7 6 5 6 5 5 5 5 5 5 5 8 8 4 5 5 4 3 4 4 2 1 2 2 2 3 4 5 5 5
4 3 3 6 7 7 6 7 9 7 5 5 5 5 5 5 5 6 6 5 5 6 7 6 5 5 5 4 3 2 2 2 2 2 2 4 4 5
3 5 6 7 6 6 7 9 8 5 6 6 5 5 4 5 6 7 7 8 8 6 5 5 6 5 5 5 4 3 3 1 2 2 2 2 2 2
2 4 6 6 4 5 6 5 4 4 5 6 6 5 5 5 6 6 7 6 6 5 5 5 6 8 5 5 5 4 3 3 2 2 2 2 2 2
4 3 3 3 3 3 3 4 4 4 5 5 6 6 6 6 5 5 6 6 6 5 4 4 5 6 6 6 5 4 3 3 2 3 3 2 1 1
5 4 4 3 4 4 4 3 4 4 5 5 6 6 6 6 5 5 5 6 6 5 5 4 6 6 5 6 4 5 3 2 2 2 3 3 1 1
3 4 4 3 3 3 4 4 4 4 5 6 6 6 6 6 6 6 5 6 5 5 4 4 5 6 6 3 2 1 4 3 3 2 2 2 3 3
2 3 4 3 3 4 5 4 4 4 5 5 6 6 6 6 6 6 6 6 5 5 4 3 4 5 6 6 3 1 2 4 4 3 2 1 0 1
2 2 3 3 3 3 4 5 5 5 5 5 5 6 5 6 6 6 6 8 6 5 5 3 3 6 5 4 3 0 1 2 5 5 4 3 1 0
2 2 3 2 3 3 4 5 5 5 6 5 5 5 5 6 7 7 7 6 5 5 4 3 3 4 3 4 4 3 2 1 0 3 5 7 5 5
3 2 2 2 3 3 4 5 7 5 5 5 5 5 6 5 5 6 6 6 5 5 4 4 2 2 2 3 4 3 3 2 1 0 2 5 7 7
Wind_Direction
231 230 228 228 218 215 207 199 218 268 280 258 260 297 329 327 309 289 264 236 220 217 216 215 212 208 202 199 199 198 202 205 205 204 204 204 204 207
231 230 232 229 223 216 212 211 208 224 255 251 243 273 301 305 328 331 284 216 216 205 198 191 183 180 177 181 181 184 186 184 183 186 188 189 192 196
241 233 233 225 221 221 215 215 215 211 247 264 250 252 261 260 319 13 34 76 92 139 150 143 137 135 139 142 142 146 147 148 152 157 162 162 164 171
242 235 236 231 222 218 215 220 221 214 223 249 254 242 241 217 189 138 93 92 88 97 113 120 122 123 123 122 121 121 120 123 124 126 132 138 144 149
241 234 232 224 226 222 218 221 223 222 211 219 239 234 232 186 149 119 100 88 91 96 98 102 107 111 112 113 111 109 108 108 108 110 111 113 116 119
242 235 228 220 221 219 222 219 211 210 208 210 219 212 204 177 153 146 122 98 95 93 86 91 97 98 102 107 110 110 109 108 106 104 103 104 103 103
248 238 231 227 222 216 216 210 201 202 201 203 206 198 188 173 169 158 141 121 89 99 101 92 93 91 91 100 106 111 111 111 110 109 108 108 107 105
251 243 237 233 226 221 220 216 207 201 201 200 204 195 193 180 162 156 147 140 126 128 108 91 89 91 85 89 109 112 113 115 116 115 113 112 112 113
244 236 239 229 217 213 215 218 216 211 205 199 197 198 189 179 164 162 158 142 131 147 119 97 86 89 87 100 112 112 113 115 116 115 114 112 112 113
241 234 231 220 211 202 204 207 204 204 204 205 201 200 186 176 167 158 146 119 101 113 110 106 100 88 81 79 100 107 110 112 112 112 113 113 115 115
244 235 228 217 209 197 190 185 183 196 186 181 181 175 168 164 153 138 140 138 132 123 87 105 114 94 76 70 82 106 114 116 115 115 115 116 115 111
240 237 225 210 198 187 184 173 174 174 149 135 134 137 148 152 154 155 154 148 138 132 141 112 133 121 100 70 91 101 101 105 106 109 122 125 122 108
222 220 213 200 189 184 177 172 171 158 141 133 126 121 121 130 136 137 144 147 144 138 154 130 139 126 123 130 114 119 118 109 101 92 108 124 130 122
218 208 193 186 181 175 165 152 149 142 129 123 122 123 123 125 122 119 116 110 112 129 142 135 131 139 126 120 122 112 103 111 115 107 102 100 99 103
203 183 168 170 169 168 155 144 143 139 131 127 126 123 120 121 116 109 101 98 87 91 109 120 126 126 122 126 129 126 114 92 117 123 118 116 122 113
162 152 150 155 157 143 140 136 131 134 135 131 124 115 110 111 115 117 115 110 97 73 53 81 119 123 113 112 122 125 130 141 141 125 113 95 82 97
145 137 139 141 146 141 130 122 123 128 124 122 122 120 118 115 112 109 115 112 112 117 99 69 71 80 99 121 120 122 120 114 133 131 113 98 59 143
149 149 147 147 154 154 141 128 126 130 130 128 129 128 127 125 118 111 113 118 120 122 122 123 114 94 68 37 67 129 118 126 131 127 123 121 155 242
143 146 145 148 154 153 148 141 139 138 135 136 136 134 130 126 125 123 120 118 119 120 121 126 124 120 120 119 349 58 142 145 132 123 141 151 181 216
131 135 140 145 155 154 153 148 140 134 131 135 135 136 135 132 131 132 134 133 130 123 118 117 132 140 147 157 166 225 151 150 147 153 159 123 63 23
145 128 131 137 148 147 144 143 141 140 137 135 136 138 137 132 133 135 135 139 131 132 143 165 175 142 111 97 98 95 281 200 169 162 155 134 121 74
153 141 142 149 152 142 134 135 133 134 134 131 136 138 139 139 140 139 141 143 145 146 149 144 126 122 116 133 156 181 213 270 182 175 180 173 164 182
161 153 143 157 158 144 135 135 136 136 137 136 139 141 141 139 140 142 145 146 143 140 134 132 128 120 129 145 159 178 192 191 165 171 267 239 215 211